TimeMDT,TemperatureF,Dew PointF,Humidity,Sea Level PressureIn,VisibilityMPH,Wind Direction,Wind SpeedMPH,Gust SpeedMPH,PrecipitationIn,Events,Conditions,WindDirDegrees,DateUTC
12:10 AM,50.0,44.6,82,30.10,10.0,NE,20.7,24.2,N/A,,Mostly Cloudy,50,2013-05-23 06:10:00
12:53 AM,50.0,44.1,80,30.09,10.0,NE,16.1,-,N/A,,Overcast,50,2013-05-23 06:53:00
1:53 AM,50.0,44.1,80,30.10,10.0,ENE,16.1,-,N/A,,Overcast,60,2013-05-23 07:53:00
2:53 AM,50.0,44.1,80,30.13,10.0,ENE,10.4,-,N/A,,Overcast,60,2013-05-23 08:53:00
3:07 AM,50.0,44.6,82,30.17,10.0,ENE,5.8,-,N/A,,Overcast,70,2013-05-23 09:07:00
3:53 AM,48.9,44.1,83,30.14,10.0,ENE,12.7,-,N/A,,Overcast,70,2013-05-23 09:53:00
4:53 AM,48.9,45.0,86,30.14,10.0,East,8.1,-,N/A,,Overcast,90,2013-05-23 10:53:00
5:53 AM,48.0,45.0,89,30.12,10.0,ENE,13.8,-,N/A,,Overcast,60,2013-05-23 11:53:00
6:53 AM,48.0,43.0,83,30.13,10.0,ENE,12.7,-,N/A,,Scattered Clouds,70,2013-05-23 12:53:00
7:53 AM,51.1,44.1,77,30.16,10.0,ENE,8.1,-,N/A,,Mostly Cloudy,70,2013-05-23 13:53:00
8:42 AM,51.8,44.6,76,30.19,10.0,Calm,Calm,-,N/A,,Mostly Cloudy,0,2013-05-23 14:42:00
8:53 AM,54.0,45.0,72,30.18,10.0,Calm,Calm,-,N/A,,Mostly Cloudy,0,2013-05-23 14:53:00
9:11 AM,53.6,44.6,72,30.19,10.0,SSE,3.5,-,N/A,,Scattered Clouds,150,2013-05-23 15:11:00
9:53 AM,57.0,45.0,64,30.17,10.0,Variable,4.6,-,N/A,,Partly Cloudy,0,2013-05-23 15:53:00
10:53 AM,59.0,46.0,62,30.17,10.0,Variable,3.5,-,N/A,,Scattered Clouds,0,2013-05-23 16:53:00
11:53 AM,62.1,46.9,58,30.15,10.0,SE,10.4,16.1,N/A,,Clear,130,2013-05-23 17:53:00
12:53 PM,66.0,48.0,52,30.13,10.0,SE,12.7,19.6,N/A,,Partly Cloudy,130,2013-05-23 18:53:00
1:53 PM,66.9,48.9,52,30.11,10.0,SE,13.8,24.2,N/A,,Partly Cloudy,130,2013-05-23 19:53:00
2:53 PM,66.9,48.0,51,30.10,10.0,SE,15.0,26.5,N/A,,Partly Cloudy,130,2013-05-23 20:53:00
3:53 PM,68.0,48.0,49,30.09,10.0,SE,17.3,24.2,N/A,,Mostly Cloudy,130,2013-05-23 21:53:00
4:53 PM,68.0,48.0,49,30.07,10.0,ESE,18.4,27.6,N/A,,Mostly Cloudy,120,2013-05-23 22:53:00
5:53 PM,66.9,46.9,49,30.06,10.0,SE,18.4,24.2,N/A,,Mostly Cloudy,140,2013-05-23 23:53:00
6:53 PM,66.0,48.0,52,30.07,10.0,SE,17.3,27.6,N/A,,Overcast,130,2013-05-24 00:53:00
7:53 PM,64.9,48.0,54,30.07,10.0,SE,18.4,26.5,N/A,,Overcast,130,2013-05-24 01:53:00
8:53 PM,62.1,48.0,60,30.07,10.0,SE,15.0,-,N/A,,Overcast,130,2013-05-24 02:53:00
9:53 PM,61.0,48.9,64,30.08,10.0,SE,19.6,29.9,N/A,,Overcast,130,2013-05-24 03:53:00
10:53 PM,60.1,48.9,67,30.08,10.0,SE,18.4,28.8,N/A,,Overcast,140,2013-05-24 04:53:00
11:53 PM,59.0,48.9,69,30.08,10.0,SE,23.0,31.1,N/A,,Mostly Cloudy,140,2013-05-24 05:53:00